Regional Weather Roundup
Issued by NWS

Home | Current Version | Previous Version | Graphics & Text | Print | Product List | Glossary On
Versions: 1 2 3 4 5 6 7 8 9 10 11 12 13 14 15 16 17 18 19 20 21 22 23 24 25 26 27 28 29 30 31 32 33 34 35 36 37 38 39 40 41 42 43 44 45 46 47 48 49 50
000
ASUS43 KIND 100009
RWRIN

WEATHER ROUNDUP FOR INDIANA
NATIONAL WEATHER SERVICE INDIANAPOLIS IN
700 PM EST TUE FEB 09 2016

NOTE: "FAIR" INDICATES FEW OR NO CLOUDS BELOW 12,000 FEET WITH NO
SIGNIFICANT WEATHER AND/OR OBSTRUCTIONS TO VISIBILITY.

* - STATION DOES NOT REPORT WEATHER SUCH AS PRECIPITATION OR FOG.

+ - STATION NOT QUALITY CONTROLLED BY THE NATIONAL WEATHER SERVICE.
    USE DATA WITH CAUTION...ESPECIALLY DEWPOINT AND RELATIVE
    HUMIDITY OBSERVATIONS.

INZ001>003-010>013-019-020-100100-
NORTHWEST INDIANA

CITY           SKY/WX    TMP DP  RH WIND       PRES   REMARKS
GARY /AIRPORT/ CLOUDY    19   9  63 NW17      29.93R WCI   4
KNOX *+        CLOUDY    18  12  79 W14       29.89R WCI   4
LA PORTE +     LGT SNOW  19  17  89 W8        29.88R WCI   9
6HR MIN TEMP:  19; 6HR MAX TEMP:  24;

MICHIGAN CITY+ LGT SNOW  19  16  86 NW12      29.89R WCI   7
MONTICELLO +   CLOUDY    17   8  67 W10       29.91R WCI   4
6HR MIN TEMP:  17; 6HR MAX TEMP:  21;

RENSSELAER +   CLOUDY    19  10  68 W10       29.93R WCI   8
VALPARAISO     LGT SNOW  17  11  77 MISG      29.90R
6HR MIN TEMP:  17; 6HR MAX TEMP:  21; 6HR PCP: TRACE;


$$

LMZ046-743>745-100100-
SOUTHERN LAKE MICHIGAN

STATION/POSITION TIME  TEMP    WIND        PRES    WAVE
                       AIR SEA DIR/SP/G            HT
                 (UTC) (F)     (DEG/KT/KT) (MB)    (FT)
BURNS HARBOR     2320   20     300/ 15/ 19 1012.5R
MICHIGAN CITY    2300   20     270/ 22/ 26   N/A

$$

INZ004-005-014>016-021>024-100100-
NORTH CENTRAL INDIANA

CITY           SKY/WX    TMP DP  RH WIND       PRES   REMARKS
ELKHART        LGT SNOW  21  18  86 W12       29.84R WCI   9
GOSHEN         LGT SNOW  21  16  81 W16       29.83R WCI   7
6HR MIN TEMP:  21; 6HR MAX TEMP:  27; 6HR PCP: TRACE;

LOGANSPORT +   FLURRIES  19   9  63 W13G18    29.90R WCI   7
PERU/GRISSOM   FLURRIES  18  13  82 W17       29.86R WCI   3
6HR MIN TEMP:  18; 6HR MAX TEMP:  22; 6HR PCP: TRACE;

ROCHESTER +    FLURRIES  21  14  73 W12       29.88R WCI   9
SOUTH BEND     LGT SNOW  19  16  88 W13       29.85R FOG     WCI   6
6HR MIN TEMP:  19; 6HR MAX TEMP:  24; 6HR PCP: TRACE;

WARSAW +       FLURRIES  19  14  79 W16G22    29.84R WCI   5

$$

INZ006>009-017-018-025>027-100100-
NORTHEAST INDIANA

CITY           SKY/WX    TMP DP  RH WIND       PRES   REMARKS
ANGOLA *+      CLOUDY    23  19  86 W13       29.75R WCI  11
AUBURN +       FLURRIES  25  18  74 W18G24    29.80R WCI  11
FORT WAYNE     FLURRIES  21  17  84 W16       29.83R WCI   7
6HR MIN TEMP:  21; 6HR MAX TEMP:  36; 6HR PCP: TRACE;

HUNTINGTON +   CLOUDY    20  11  67 W9G16     29.84R WCI   9
6HR MIN TEMP:  20; 6HR MAX TEMP:  24;


$$

INZ028-029-035-036-043>045-051>053-100100-
WEST CENTRAL INDIANA

CITY           SKY/WX    TMP DP  RH WIND       PRES   REMARKS
GREENCASTLE +  LGT SNOW  18   9  68 W6        29.94R WCI   9
LAFAYETTE      LGT SNOW  15  10  80 NW12      29.94R WCI   2
6HR MIN TEMP:  15; 6HR MAX TEMP:  21; 6HR PCP: TRACE;

TERRE HAUTE    CLOUDY    18   9  68 NW12      29.99R WCI   5
6HR MIN TEMP:  18; 6HR MAX TEMP:  21; 6HR PCP: TRACE;


$$

INZ030>032-037>040-046>048-054>057-064-065-100100-
CENTRAL INDIANA

CITY           SKY/WX    TMP DP  RH WIND       PRES   REMARKS
COLUMBUS       FLURRIES  19  16  86 NW10      29.94R WCI   8
FRANKFORT +    FLURRIES  17   8  67 W13       29.92R WCI   3
6HR MIN TEMP:  17; 6HR MAX TEMP:  24;

GREENWOOD *+   CLOUDY    19  18  93 W8G16     29.92R VSB 1   WCI   9
INDIANAPOLIS   FLURRIES  17  10  74 W14       29.92R WCI   3
6HR MIN TEMP:  17; 6HR MAX TEMP:  23; 6HR PCP: TRACE;

-EAGLE CREEK   CLOUDY    17  11  77 W14       29.91R WCI   3
6HR MIN TEMP:  17; 6HR MAX TEMP:  22; 6HR PCP: TRACE;

KOKOMO *+      CLOUDY    18  10  73 W20       29.88R WCI   1
6HR MIN TEMP:  18; 6HR MAX TEMP:  21;

MARION +       FLURRIES  19   8  62 W17       29.88R WCI   3
MT COMFORT *+  CLOUDY    18  12  79 W16       29.90R WCI   3
SHELBYVILLE    LGT SNOW  20  13  74 W15       29.91R WCI   6
6HR MIN TEMP:  20; 6HR MAX TEMP:  24; 6HR PCP: TRACE;

ZIONSVILLE +   LGT SNOW  16  12  85 W12       29.91R WCI   3
6HR MIN TEMP:  16; 6HR MAX TEMP:  22;


$$

INZ033-034-041-042-049-050-058-059-100100-
EAST CENTRAL INDIANA

CITY           SKY/WX    TMP DP  RH WIND       PRES   REMARKS
MUNCIE         LGT SNOW  20  14  77 W12       29.86R WCI   8
6HR MIN TEMP:  20; 6HR MAX TEMP:  24; 6HR PCP: TRACE;


$$

INZ060-061-067>069-081>083-085>088-100100-
SOUTHWEST INDIANA

CITY           SKY/WX    TMP DP  RH WIND       PRES   REMARKS
EVANSVILLE     LGT SNOW  22  14  71 W6G17     30.06R WCI  14
6HR MIN TEMP:  22; 6HR MAX TEMP:  25; 6HR PCP: TRACE;

HUNTINGBURG *+ MOCLDY    19  16  86 W9        30.02R WCI   9
6HR MIN TEMP:  19; 6HR MAX TEMP:  23;

WASHINGTON +   CLOUDY    19  15  84 W7        30.00S WCI  10
6HR MIN TEMP:  19; 6HR MAX TEMP:  23;


$$

INZ062-063-066-070>080-084-089>092-100100-
SOUTH CENTRAL AND SOUTHEAST INDIANA

CITY           SKY/WX    TMP DP  RH WIND       PRES   REMARKS
BLOOMINGTON    LGT SNOW  18  13  80 VRB7      29.95R WCI   9
6HR MIN TEMP:  18; 6HR MAX TEMP:  22; 6HR PCP: TRACE;

MADISON *+     CLOUDY    23  18  80 W10       29.95R WCI  12
SEYMOUR +      LGT SNOW  23  18  80 W17       29.96R WCI   9

$$




USA.gov is the U.S. government's official web portal to all federal, state and local government web resources and services.